Home > Weather > Nelson > Past weeks

Flag for Canada Past Weather in Nelson, British Columbia, Canada — Yesterday and Last 2 Weeks

Now
62 °F

Cool.


Feels Like: 62 °F
Forecast: 54 / 82 °F
Wind: 2 mph from Northeast

Location: Nelson

Current Time: Aug 24, 2016 at 9:24:02 AM

Latest Report: Aug 24, 2016 at 9:00 AM


Visibility: N/A

Pressure: 30.31 "Hg (28.37 "Hg at 560m altitude)

Humidity: 63%

Dew Point: 49 °F

Location of NelsonLocation

Past Weather in Nelson — Graph

°F

Nelson Temperature Yesterday

Maximum temperature yesterday: 82 °F (at 3:00 PM)
Minimum temperature yesterday: 52 °F (at 6:00 AM)
Average temperature yesterday: 63 °F

High & Low Weather Summary for the Past Weeks

 TemperatureHumidityPressure
High96 °F (Aug 15, 4:00 PM)94% (Aug 11, 4:00 AM)30.33 "Hg (Aug 11, 4:00 AM)
Low49 °F (Aug 24, 6:00 AM)14% (Aug 21, 4:00 PM)29.48 "Hg (Aug 21, 10:00 PM)
Average69 °F55%29.97 "Hg
* Reported Aug 9 8:00 AM — Aug 24 8:00 AM, Nelson, Weather by CustomWeather, © 2016

Note: Actual official high and low records may vary slightly from our data, if they occured in-between our weather recording intervals... More about our weather records

Advertising

Nelson Weather History for the Previous 24 Hours

Scroll right to see more
 ConditionsComfort  
Time TempWeatherWind HumidityBarometerVisibility
8:00 AM
Wed, Aug 24
56 °FCool.1 mph75%30.32 "HgN/A
7:00 AM50 °FCool.1 mph94%30.33 "HgN/A
6:00 AM49 °FCool.1 mph87%30.31 "HgN/A
5:00 AM50 °FCool.2 mph93%30.27 "HgN/A
4:00 AM51 °FCool.1 mph93%30.25 "HgN/A
3:00 AM51 °FCool.1 mph92%30.24 "HgN/A
2:00 AM53 °FCool.2 mph92%30.23 "HgN/A
1:00 AM55 °FCool.1 mph88%30.22 "HgN/A
12:00 AM55 °FCool.3 mph84%30.22 "HgN/A
11:00 PM
Tue, Aug 23
54 °FCool.2 mph89%30.23 "HgN/A
10:00 PM57 °FCool.2 mph82%30.23 "HgN/A
9:00 PM59 °FCool.2 mph84%30.21 "HgN/A
8:00 PM59 °FCool.2 mph89%30.20 "HgN/A
7:00 PM60 °FCool.7 mph89%30.18 "HgN/A
6:00 PM62 °FCool.6 mph84%30.14 "HgN/A
5:00 PM80 °FPleasantly warm.10 mph30%30.05 "HgN/A
4:00 PM82 °FPleasantly warm.2 mph25%30.04 "HgN/A
3:00 PM82 °FPleasantly warm.7 mph26%30.04 "HgN/A
2:00 PM81 °FPleasantly warm.6 mph26%30.06 "HgN/A
1:00 PM80 °FPleasantly warm.6 mph28%30.06 "HgN/A
12:00 PM75 °FMild.3 mph34%30.07 "HgN/A
11:00 AM70 °FMild.6 mph41%30.09 "HgN/A
10:00 AM66 °FMild.9 mph48%30.10 "HgN/A
9:00 AM61 °FRefreshingly cool.5 mph56%30.10 "HgN/A
Weather by CustomWeather, © 2016

See weather overviewHow to use our weather pages